Regional Weather Roundup
Issued by NWS

Home | Current Version | Previous Version | Graphics & Text | Print | Product List | Glossary On
Versions: 1 2 3 4 5 6 7 8 9 10 11 12 13 14 15 16 17 18 19 20 21 22 23 24 25 26 27 28 29 30 31 32 33 34 35 36 37 38 39 40 41 42 43 44 45 46 47 48 49 50
000
ASUS43 KIND 201159
RWRIN

WEATHER ROUNDUP FOR INDIANA
NATIONAL WEATHER SERVICE INDIANAPOLIS IN
700 AM EST TUE FEB 20 2018

NOTE: "FAIR" INDICATES FEW OR NO CLOUDS BELOW 12,000 FEET WITH NO
SIGNIFICANT WEATHER AND/OR OBSTRUCTIONS TO VISIBILITY.

* - STATION DOES NOT REPORT WEATHER SUCH AS PRECIPITATION OR FOG.

+ - STATION NOT QUALITY CONTROLLED BY THE NATIONAL WEATHER SERVICE.
    USE DATA WITH CAUTION...ESPECIALLY DEWPOINT AND RELATIVE
    HUMIDITY OBSERVATIONS.

INZ001>003-010>013-019-020-201300-
NORTHWEST INDIANA

CITY           SKY/WX    TMP DP  RH WIND       PRES   REMARKS
GARY /AIRPORT/ RAIN      61  59  94 S12G25    29.86S
MONTICELLO +   RAIN      64  59  84 S20G26    29.90S
6HR MIN TEMP:  60; 6HR MAX TEMP:  64; 6HR PCP:  0.02;

RENSSELAER +   LGT RAIN  61  54  77 S16G22    29.90F

$$

LMZ046-743>745-201300-
SOUTHERN LAKE MICHIGAN

STATION/POSITION TIME  TEMP    WIND        PRES    WAVE
                       AIR SEA DIR/SP/G            HT
                 (UTC) (F)     (DEG/KT/KT) (MB)    (FT)
BURNS HARBOR     1140   60     200/ 19/ 23 1011.5S
MICHIGAN CITY    1130   60     190/ 17/ 21   N/A

$$

INZ004-005-014>016-021>024-201300-
NORTH CENTRAL INDIANA

CITY           SKY/WX    TMP DP  RH WIND       PRES   REMARKS
ELKHART        RAIN      57  55  94 S7        29.90
GOSHEN         LGT RAIN  59  56  89 S15       29.92S
6HR MIN TEMP:  54; 6HR MAX TEMP:  60; 6HR PCP:  0.32;

PERU/GRISSOM   MOCLDY    63  63 100 S18G26    29.94S
6HR MIN TEMP:  61; 6HR MAX TEMP:  63; 6HR PCP:  0.01;

ROCHESTER +    FAIR      63  59  88 S15G23    29.92S
SOUTH BEND     HVY RAIN  59  57  93 S22       29.91R FOG
6HR MIN TEMP:  57; 6HR MAX TEMP:  60; 6HR PCP:  1.06;

WARSAW +       CLOUDY    59  55  88 S7        29.93S

$$

INZ006>009-017-018-025>027-201300-
NORTHEAST INDIANA

CITY           SKY/WX    TMP DP  RH WIND       PRES   REMARKS
AUBURN +       MOCLDY    61  55  82 S9G18     29.96F
FORT WAYNE     CLOUDY    62  57  83 S17       29.96F
6HR MIN TEMP:  61; 6HR MAX TEMP:  62; 6HR PCP:  0.01;

KENDALLVILLE + CLOUDY    59  57  92 S12G17    29.94F

$$

INZ028-029-035-036-043>045-051>053-201300-
WEST CENTRAL INDIANA

CITY           SKY/WX    TMP DP  RH WIND       PRES   REMARKS
GREENCASTLE +  FAIR      64  55  72 S14G25    29.99R
LAFAYETTE      CLOUDY    66  59  78 S20G35    29.91R
6HR MIN TEMP:  61; 6HR MAX TEMP:  66; 6HR PCP:  0.02;

TERRE HAUTE    FAIR      65  58  78 S17G31    29.97R
6HR MIN TEMP:  63; 6HR MAX TEMP:  65;


$$

INZ030>032-037>040-046>048-054>057-064-065-201300-
CENTRAL INDIANA

CITY           SKY/WX    TMP DP  RH WIND       PRES   REMARKS
COLUMBUS       PTCLDY    63  54  72 S21G32    30.05
GREENWOOD *+   CLOUDY    58 -48   1 S12       30.03R
6HR MIN TEMP:  57; 6HR MAX TEMP:  61;

INDIANAPOLIS   MOCLDY    66  57  72 S25G31    30.00R
6HR MIN TEMP:  62; 6HR MAX TEMP:  66;

-EAGLE CREEK   MOCLDY    67  57  70 S16G26    29.98F
6HR MIN TEMP:  65; 6HR MAX TEMP:  68;

KOKOMO +       FAIR      59  56  89 S14       29.97S
6HR MIN TEMP:  59; 6HR MAX TEMP:  63;

MT COMFORT *+  CLOUDY    61  59  94 S14       30.02S
SHELBYVILLE    FAIR      62  55  77 S15       30.03R
6HR MIN TEMP:  62; 6HR MAX TEMP:  63;

ZIONSVILLE +   FAIR      64  58  81 S17G31    29.98F
6HR MIN TEMP:  61; 6HR MAX TEMP:  64;


$$

INZ033-034-041-042-049-050-058-059-201300-
EAST CENTRAL INDIANA

CITY           SKY/WX    TMP DP  RH WIND       PRES   REMARKS
MUNCIE         FAIR      62  55  77 S13G22    30.01R
6HR MIN TEMP:  62; 6HR MAX TEMP:  64;

RICHMOND +     FAIR      54  54 100 S13       30.08F

$$

INZ060-061-067>069-081>083-085>088-201300-
SOUTHWEST INDIANA

CITY           SKY/WX    TMP DP  RH WIND       PRES   REMARKS
EVANSVILLE     FAIR      67  59  75 S17G30    30.07R
6HR MIN TEMP:  65; 6HR MAX TEMP:  67;

HUNTINGBURG +  FAIR      65  59  81 S16G25    30.09R
6HR MIN TEMP:  65; 6HR MAX TEMP:  66;


$$

INZ062-063-066-070>080-084-089>092-201300-
SOUTH CENTRAL AND SOUTHEAST INDIANA

CITY           SKY/WX    TMP DP  RH WIND       PRES   REMARKS
BLOOMINGTON    FAIR      67  58  72 SW20G28   30.03R
6HR MIN TEMP:  66; 6HR MAX TEMP:  67;

FRENCH LICK *+ FAIR      64  54  68 S13G20    30.09R
MADISON *+     FAIR      63  54  72 S13G20    30.13R
SEYMOUR +      FAIR      66  55  68 S15G22    30.07R

$$




USA.gov is the U.S. government's official web portal to all federal, state and local government web resources and services.